Weather History for False Pass, AK

Change the Weather History Date:

Saturday, October 19, 2013

  Actual Average (PACD) Record (PACD)
Temperature  
Mean Temperature 44 °F 40 °F  
Max Temperature 39 °F 45 °F 55 °F (1957)
Min Temperature 39 °F 35 °F 25 °F (2007)
Degree Days  
Heating Degree Days 22 25  
Month to date heating degree days 439  
Since 1 July heating degree days 1790  
Cooling Degree Days 0    
Month to date cooling degree days  
Year to date cooling degree days  
Moisture  
Dew Point 39 °F    
Average Humidity 81    
Maximum Humidity 93    
Minimum Humidity 71    
Precipitation  
Precipitation 0.02 in 0.16 in 1.40 in (1961)
Month to date precipitation 2.97  
Year to date precipitation 30.44  
Snow  
Snow 0.00 in 0.10 in 0.80 in (1966)
Month to date snowfall 0.8  
Since 1 July snowfall 0.8  
Since 1 September snowfall 0.8  
Snow Depth -    
Sea Level Pressure  
Sea Level Pressure 29.56 in    
Wind  
Wind Speed 12 mph (South)    
Max Wind Speed 23 mph    
Max Gust Speed 32 mph    
Visibility 10 miles    
Events Rain    
T = Trace of Precipitation, MM = Missing Value Source: NWS Daily Summary

Daily Weather History Graph

Daily Weather History Graph

Search for Another Location

Airport:

Trip Planner

Search our weather history database for the weather conditions in past years. The results will help you decide how hot, cold, wet, or windy it might be!

Date:

Astronomy

Oct. 19, 2013 Rise Set
Actual Time 8:31 AM HADT 6:44 PM HADT
Civil Twilight 7:54 AM HADT 7:21 PM HADT
Nautical Twilight 7:12 AM HADT 8:02 PM HADT
Astronomical Twilight 6:31 AM HADT 8:44 PM HADT
Moon 7:05 PM HADT (10/19) 9:33 AM HADT (10/19)
Length of Visible Light 11h 26m
Length of Day
10h 12m
Full, 99% of the Moon is Illuminated
Oct 19
Full
Oct 26
Last Quarter
Nov 3
New
Nov 9
First Quarter
Nov 17
Full

Hourly Weather History & Observations

Time (HADT) Temp. Windchill Dew Point Humidity Pressure Visibility Wind Dir Wind Speed Gust Speed Precip Events Conditions
12:01 AM 46.0 °F 37.8 °F 41.0 °F 83% 29.29 in 9.0 mi SSE 23.0 mph 32.2 mph 0.01 in Rain Light Rain
1:01 AM 46.0 °F 39.6 °F 39.9 °F 79% 29.31 in 10.0 mi SSE 15.0 mph 28.8 mph 0.00 in Rain Light Rain
2:01 AM 46.4 °F 39.5 °F 37.4 °F 71% 29.05 in 10.0 mi SSE 17.3 mph 25.3 mph 0.00 in   Mostly Cloudy
3:01 AM 46.0 °F 39.0 °F 39.0 °F 76% 29.35 in 10.0 mi SSE 17.3 mph 32.2 mph 0.00 in Rain Light Rain
4:01 AM 46.0 °F 41.9 °F 37.9 °F 73% 29.37 in 10.0 mi SSE 8.1 mph 16.1 mph 0.00 in   Overcast
5:01 AM 45.0 °F 41.8 °F 37.0 °F 74% 29.40 in 10.0 mi South 5.8 mph 17.3 mph N/A   Partly Cloudy
6:01 AM 45.0 °F 39.7 °F 37.9 °F 76% 29.42 in 10.0 mi South 10.4 mph 20.7 mph 0.00 in Rain Light Rain
7:01 AM 45.0 °F 37.6 °F 37.9 °F 76% 29.45 in 10.0 mi South 17.3 mph - 0.00 in Rain Light Rain
8:01 AM 45.0 °F 40.1 °F 37.9 °F 76% 29.48 in 10.0 mi South 9.2 mph 17.3 mph 0.00 in Rain Light Rain
9:01 AM 45.0 °F 41.2 °F 37.0 °F 74% 29.51 in 10.0 mi Variable 6.9 mph 16.1 mph 0.00 in Rain Light Rain
10:01 AM 46.0 °F 40.6 °F 37.9 °F 73% 29.54 in 10.0 mi South 11.5 mph 18.4 mph 0.00 in Rain Light Rain
11:01 AM 46.0 °F 39.3 °F 37.9 °F 73% 29.57 in 10.0 mi SSE 16.1 mph 23.0 mph 0.00 in   Overcast
12:01 PM 46.9 °F - 39.0 °F 74% 29.60 in 10.0 mi SSE 15.0 mph 19.6 mph N/A   Overcast
1:01 PM 48.0 °F - 39.0 °F 71% 29.63 in 10.0 mi SSE 15.0 mph 21.9 mph N/A   Mostly Cloudy
2:01 PM 46.9 °F - 39.9 °F 77% 29.67 in 10.0 mi South 8.1 mph 18.4 mph 0.00 in Rain Light Rain
3:01 PM 48.0 °F - 39.9 °F 74% 29.69 in 10.0 mi SSE 4.6 mph - 0.00 in Rain Light Rain
4:01 PM 46.9 °F - 39.9 °F 77% 29.72 in 10.0 mi Calm Calm - 0.01 in Rain Light Rain
5:01 PM 46.0 °F 41.4 °F 39.9 °F 79% 29.74 in 10.0 mi SSE 9.2 mph - 0.00 in Rain Light Rain
6:01 PM 43.0 °F 41.3 °F 39.9 °F 89% 29.76 in 6.0 mi South 3.5 mph - 0.01 in Rain Light Rain
7:01 PM 43.0 °F - 37.9 °F 82% 29.78 in 10.0 mi North - - 0.00 in Rain Light Rain
7:59 PM 42.8 °F 40.1 °F 39.2 °F 87% 29.53 in 10.0 mi SW 4.6 mph - N/A   Overcast
8:01 PM 42.1 °F 40.2 °F 39.0 °F 89% 29.81 in 10.0 mi SSW 3.5 mph - N/A   Overcast
8:33 PM 42.8 °F - 39.2 °F 87% 29.55 in 10.0 mi Calm Calm - 0.00 in   Overcast
9:01 PM 41.0 °F - 39.0 °F 93% 29.84 in 10.0 mi Calm Calm - 0.00 in Rain Light Rain
10:01 PM 41.0 °F 37.1 °F 37.4 °F 87% 29.57 in 10.0 mi South 5.8 mph - 0.00 in   Overcast
10:20 PM 39.2 °F 35.9 °F 37.4 °F 93% 29.58 in 10.0 mi WSW 4.6 mph - 0.00 in   Mostly Cloudy
10:27 PM 39.2 °F - 37.4 °F 93% 29.58 in 10.0 mi Calm Calm - 0.00 in   Mostly Cloudy
10:38 PM 39.2 °F - 37.4 °F 93% 29.59 in 10.0 mi Calm Calm - 0.00 in   Mostly Cloudy
11:01 PM 39.9 °F - 37.0 °F 89% 29.87 in 10.0 mi Calm Calm - 0.00 in   Overcast